QPF
0.01 0.00 0.00 0.00 0.00 0.00 0.00 0.00 0.00 0.01 0.01 0.01 0.01 0.03 0.04 0.06 0.06 0.07 0.08 0.09 0.12 0.14 0.16 0.14 0.12 0.08 0.06 0.04 0.03 0.02 0.02 0.02 0.02 0.02 0.02 0.02 0.02 0.01 0.01 0.00 0.00 0.00 0.00
0.00 0.00 0.00 0.00 0.00 0.00 0.00 0.00 0.00 0.00 0.00 0.01 0.01 0.02 0.02 0.03 0.03 0.04 0.04 0.04 0.05 0.09 0.11 0.13 0.10 0.08 0.07 0.05 0.03 0.03 0.02 0.01 0.01 0.01 0.01 0.01 0.00 0.00 0.00 0.00 0.00 0.00 0.00
0.00 0.00 0.00 0.00 0.00 0.00 0.00 0.00 0.00 0.01 0.01 0.01 0.01 0.01 0.01 0.02 0.03 0.03 0.04 0.04 0.03 0.04 0.08 0.11 0.11 0.09 0.06 0.06 0.05 0.04 0.03 0.02 0.01 0.01 0.00 0.00 0.00 0.00 0.00 0.00 0.00 0.00 0.00
0.00 0.00 0.00 0.00 0.00 0.00 0.00 0.00 0.00 0.00 0.01 0.01 0.01 0.00 0.00 0.00 0.01 0.01 0.02 0.03 0.03 0.04 0.05 0.06 0.08 0.10 0.09 0.09 0.05 0.04 0.03 0.02 0.01 0.01 0.00 0.00 0.00 0.00 0.00 0.00 0.00 0.00 0.00
0.00 0.00 0.00 0.00 0.00 0.00 0.00 0.00 0.00 0.00 0.00 0.00 0.00 0.00 0.00 0.00 0.00 0.00 0.01 0.01 0.01 0.03 0.04 0.07 0.08 0.07 0.09 0.09 0.08 0.06 0.04 0.03 0.01 0.01 0.00 0.00 0.00 0.00 0.00 0.00 0.00 0.00 0.00
0.00 0.00 0.00 0.00 0.00 0.00 0.00 0.00 0.00 0.00 0.00 0.00 0.00 0.00 0.00 0.00 0.00 0.00 0.00 0.00 0.01 0.01 0.02 0.05 0.08 0.10 0.10 0.09 0.08 0.06 0.05 0.04 0.02 0.01 0.00 0.00 0.00 0.00 0.00 0.00 0.00 0.00 0.00
0.00 0.00 0.00 0.00 0.00 0.00 0.00 0.00 0.00 0.00 0.00 0.00 0.00 0.00 0.00 0.00 0.00 0.00 0.00 0.00 0.00 0.00 0.00 0.01 0.04 0.08 0.12 0.15 0.12 0.07 0.05 0.05 0.04 0.02 0.01 0.00 0.00 0.00 0.00 0.00 0.00 0.00 0.00
0.00 0.00 0.00 0.00 0.00 0.00 0.00 0.00 0.00 0.00 0.00 0.00 0.00 0.00 0.00 0.00 0.00 0.00 0.00 0.00 0.00 0.00 0.00 0.00 0.01 0.03 0.07 0.12 0.15 0.14 0.12 0.09 0.06 0.04 0.03 0.01 0.00 0.00 0.00 0.00 0.00 0.00 0.00
0.00 0.00 0.00 0.00 0.00 0.00 0.00 0.00 0.00 0.00 0.00 0.00 0.00 0.00 0.00 0.00 0.00 0.00 0.00 0.00 0.00 0.00 0.00 0.00 0.00 0.00 0.02 0.05 0.11 0.17 0.21 0.20 0.14 0.10 0.08 0.04 0.02 0.00 0.00 0.00 0.00 0.00 0.00
0.00 0.00 0.00 0.00 0.00 0.00 0.00 0.00 0.00 0.00 0.00 0.00 0.00 0.00 0.00 0.00 0.00 0.00 0.00 0.00 0.00 0.00 0.00 0.00 0.00 0.00 0.00 0.01 0.04 0.13 0.25 0.34 0.32 0.25 0.19 0.13 0.07 0.04 0.02 0.01 0.00 0.00 0.01
0.00 0.00 0.00 0.00 0.00 0.00 0.00 0.00 0.00 0.00 0.00 0.00 0.00 0.00 0.00 0.00 0.00 0.00 0.00 0.00 0.00 0.00 0.00 0.00 0.00 0.00 0.00 0.00 0.01 0.05 0.17 0.36 0.50 0.50 0.41 0.29 0.20 0.13 0.07 0.03 0.01 0.01 0.01
0.00 0.00 0.00 0.00 0.00 0.00 0.00 0.00 0.00 0.00 0.00 0.00 0.00 0.00 0.00 0.00 0.00 0.00 0.00 0.00 0.00 0.00 0.00 0.00 0.00 0.00 0.00 0.00 0.00 0.01 0.04 0.15 0.36 0.55 0.62 0.53 0.40 0.26 0.16 0.09 0.05 0.02 0.01
0.00 0.00 0.00 0.00 0.00 0.00 0.00 0.00 0.00 0.00 0.00 0.00 0.00 0.00 0.00 0.00 0.00 0.00 0.00 0.00 0.00 0.00 0.00 0.00 0.00 0.00 0.00 0.00 0.00 0.00 0.00 0.02 0.09 0.24 0.45 0.58 0.57 0.42 0.29 0.19 0.12 0.08 0.04
0.00 0.00 0.00 0.00 0.00 0.00 0.00 0.00 0.00 0.00 0.00 0.00 0.00 0.00 0.00 0.00 0.00 0.00 0.00 0.00 0.00 0.00 0.00 0.00 0.00 0.00 0.00 0.00 0.00 0.01 0.01 0.01 0.02 0.05 0.14 0.32 0.51 0.53 0.44 0.32 0.21 0.16 0.11
0.00 0.00 0.00 0.00 0.00 0.00 0.00 0.00 0.00 0.00 0.00 0.00 0.00 0.00 0.00 0.00 0.00 0.00 0.01 0.01 0.01 0.01 0.02 0.02 0.02 0.02 0.01 0.01 0.01 0.02 0.02 0.02 0.02 0.02 0.03 0.10 0.24 0.40 0.47 0.43 0.33 0.23 0.17
0.00 0.00 0.00 0.00 0.00 0.00 0.00 0.00 0.00 0.00 0.00 0.00 0.00 0.00 0.00 0.00 0.01 0.01 0.01 0.02 0.03 0.04 0.04 0.05 0.05 0.05 0.02 0.01 0.01 0.02 0.03 0.04 0.04 0.04 0.04 0.04 0.07 0.16 0.30 0.40 0.40 0.32 0.20
0.00 0.00 0.00 0.00 0.00 0.00 0.00 0.00 0.00 0.00 0.00 0.00 0.00 0.01 0.01 0.01 0.01 0.02 0.02 0.03 0.04 0.05 0.06 0.06 0.07 0.07 0.06 0.05 0.02 0.01 0.04 0.06 0.06 0.06 0.06 0.04 0.03 0.05 0.11 0.21 0.29 0.30 0.22
0.00 0.00 0.00 0.00 0.00 0.00 0.00 0.00 0.00 0.00 0.00 0.00 0.01 0.01 0.01 0.02 0.02 0.03 0.04 0.04 0.06 0.06 0.07 0.08 0.08 0.09 0.08 0.08 0.05 0.02 0.05 0.08 0.06 0.05 0.05 0.05 0.05 0.04 0.04 0.07 0.13 0.18 0.17
0.00 0.00 0.00 0.00 0.00 0.00 0.00 0.00 0.00 0.00 0.00 0.00 0.01 0.01 0.02 0.02 0.03 0.04 0.04 0.06 0.06 0.06 0.07 0.08 0.10 0.11 0.11 0.11 0.06 0.04 0.09 0.10 0.07 0.05 0.03 0.03 0.04 0.03 0.01 0.02 0.05 0.08 0.11
0.00 0.00 0.00 0.00 0.00 0.00 0.00 0.00 0.00 0.00 0.00 0.00 0.01 0.01 0.02 0.03 0.04 0.04 0.05 0.06 0.07 0.07 0.07 0.08 0.10 0.13 0.15 0.14 0.07 0.04 0.08 0.09 0.07 0.06 0.04 0.02 0.02 0.02 0.01 0.01 0.02 0.04 0.06
0.00 0.00 0.00 0.00 0.00 0.00 0.00 0.00 0.00 0.00 0.00 0.00 0.01 0.02 0.03 0.04 0.04 0.05 0.06 0.07 0.07 0.08 0.07 0.08 0.10 0.12 0.15 0.13 0.07 0.04 0.06 0.06 0.04 0.02 0.01 0.01 0.01 0.00 0.00 0.01 0.02 0.02 0.03
0.00 0.00 0.00 0.00 0.00 0.00 0.00 0.00 0.00 0.00 0.00 0.01 0.01 0.02 0.03 0.03 0.04 0.06 0.06 0.06 0.07 0.07 0.07 0.07 0.08 0.11 0.13 0.10 0.07 0.04 0.03 0.03 0.03 0.02 0.00 0.01 0.00 0.00 0.00 0.00 0.01 0.01 0.02
0.00 0.00 0.00 0.00 0.00 0.00 0.00 0.00 0.00 0.00 0.01 0.01 0.01 0.02 0.02 0.03 0.04 0.05 0.06 0.07 0.08 0.10 0.09 0.07 0.07 0.08 0.09 0.08 0.06 0.04 0.02 0.01 0.01 0.01 0.00 0.00 0.00 0.00 0.00 0.00 0.01 0.03 0.03
0.00 0.00 0.00 0.00 0.00 0.00 0.00 0.00 0.00 0.01 0.01 0.01 0.01 0.02 0.02 0.02 0.03 0.05 0.06 0.07 0.09 0.10 0.09 0.08 0.08 0.07 0.07 0.06 0.04 0.03 0.01 0.01 0.00 0.00 0.00 0.00 0.00 0.00 0.01 0.01 0.03 0.06 0.07
0.00 0.00 0.00 0.00 0.00 0.00 0.00 0.01 0.01 0.01 0.02 0.02 0.01 0.02 0.02 0.02 0.02 0.03 0.04 0.05 0.07 0.06 0.05 0.06 0.08 0.08 0.07 0.05 0.02 0.02 0.02 0.01 0.00 0.01 0.01 0.01 0.00 0.01 0.02 0.03 0.06 0.11 0.13
0.00 0.00 0.00 0.00 0.00 0.00 0.01 0.01 0.01 0.02 0.03 0.03 0.02 0.02 0.02 0.02 0.02 0.02 0.03 0.04 0.04 0.03 0.02 0.02 0.02 0.03 0.03 0.02 0.01 0.00 0.01 0.00 0.00 0.01 0.02 0.01 0.02 0.02 0.04 0.05 0.10 0.16 0.20
MSLP
1014.78 1014.55 1014.32 1014.08 1013.82 1013.54 1013.24 1012.94 1012.66 1012.40 1012.18 1011.99 1011.83 1011.68 1011.52 1011.33 1011.12 1010.86 1010.58 1010.30 1010.03 1009.82 1009.67 1009.62 1009.66 1009.80 1010.02 1010.29 1010.58 1010.85 1011.08 1011.23 1011.30 1011.29 1011.21 1011.07 1010.92 1010.77 1010.65 1010.58 1010.57 1010.61 1010.72
1014.66 1014.44 1014.23 1014.00 1013.74 1013.47 1013.18 1012.91 1012.65 1012.43 1012.24 1012.09 1011.95 1011.81 1011.65 1011.44 1011.18 1010.88 1010.56 1010.23 1009.93 1009.70 1009.54 1009.48 1009.52 1009.65 1009.86 1010.10 1010.36 1010.60 1010.80 1010.93 1010.99 1010.99 1010.93 1010.83 1010.71 1010.59 1010.48 1010.41 1010.38 1010.38 1010.42
1014.48 1014.30 1014.12 1013.92 1013.69 1013.44 1013.18 1012.93 1012.71 1012.52 1012.36 1012.24 1012.11 1011.97 1011.80 1011.57 1011.29 1010.96 1010.61 1010.26 1009.95 1009.71 1009.56 1009.50 1009.53 1009.65 1009.82 1010.01 1010.22 1010.40 1010.54 1010.63 1010.68 1010.68 1010.64 1010.58 1010.50 1010.43 1010.36 1010.30 1010.25 1010.23 1010.23
1014.32 1014.19 1014.05 1013.88 1013.69 1013.47 1013.24 1013.02 1012.82 1012.65 1012.51 1012.40 1012.28 1012.14 1011.95 1011.71 1011.41 1011.06 1010.70 1010.36 1010.06 1009.83 1009.69 1009.63 1009.66 1009.74 1009.87 1010.00 1010.13 1010.23 1010.31 1010.35 1010.36 1010.35 1010.33 1010.30 1010.27 1010.24 1010.21 1010.17 1010.14 1010.11 1010.08
1014.24 1014.15 1014.04 1013.91 1013.74 1013.54 1013.33 1013.12 1012.93 1012.77 1012.64 1012.52 1012.40 1012.25 1012.05 1011.80 1011.49 1011.14 1010.79 1010.46 1010.18 1009.97 1009.84 1009.80 1009.81 1009.87 1009.94 1010.01 1010.06 1010.09 1010.09 1010.07 1010.04 1010.02 1010.01 1010.00 1010.01 1010.01 1010.01 1010.00 1009.98 1009.94 1009.91
1014.24 1014.18 1014.09 1013.97 1013.81 1013.61 1013.40 1013.19 1013.00 1012.83 1012.69 1012.56 1012.43 1012.26 1012.06 1011.79 1011.48 1011.14 1010.80 1010.49 1010.23 1010.05 1009.93 1009.89 1009.89 1009.92 1009.95 1009.96 1009.95 1009.91 1009.85 1009.78 1009.73 1009.69 1009.67 1009.68 1009.71 1009.74 1009.76 1009.76 1009.75 1009.72 1009.68
1014.30 1014.23 1014.15 1014.02 1013.85 1013.64 1013.41 1013.18 1012.97 1012.79 1012.63 1012.48 1012.33 1012.15 1011.93 1011.66 1011.34 1011.01 1010.68 1010.39 1010.15 1009.97 1009.87 1009.83 1009.82 1009.83 1009.82 1009.80 1009.74 1009.66 1009.57 1009.47 1009.40 1009.36 1009.34 1009.36 1009.39 1009.43 1009.46 1009.46 1009.45 1009.42 1009.40
1014.35 1014.28 1014.17 1014.02 1013.82 1013.58 1013.32 1013.07 1012.83 1012.63 1012.45 1012.28 1012.11 1011.91 1011.67 1011.38 1011.07 1010.73 1010.40 1010.12 1009.88 1009.71 1009.61 1009.56 1009.54 1009.54 1009.52 1009.47 1009.40 1009.31 1009.21 1009.12 1009.06 1009.03 1009.03 1009.05 1009.09 1009.12 1009.14 1009.14 1009.13 1009.10 1009.08
1014.37 1014.27 1014.13 1013.94 1013.71 1013.44 1013.16 1012.87 1012.61 1012.38 1012.18 1011.99 1011.79 1011.57 1011.31 1011.01 1010.67 1010.33 1009.99 1009.69 1009.45 1009.27 1009.16 1009.09 1009.06 1009.05 1009.02 1008.98 1008.92 1008.85 1008.78 1008.72 1008.69 1008.70 1008.73 1008.77 1008.82 1008.85 1008.86 1008.85 1008.82 1008.79 1008.78
1014.31 1014.18 1014.01 1013.79 1013.53 1013.24 1012.93 1012.63 1012.35 1012.11 1011.88 1011.66 1011.44 1011.19 1010.90 1010.57 1010.21 1009.84 1009.49 1009.17 1008.90 1008.70 1008.56 1008.48 1008.43 1008.40 1008.37 1008.34 1008.31 1008.27 1008.25 1008.26 1008.29 1008.35 1008.43 1008.51 1008.58 1008.63 1008.64 1008.62 1008.58 1008.55 1008.55
1014.17 1014.01 1013.82 1013.58 1013.31 1013.01 1012.70 1012.39 1012.11 1011.85 1011.61 1011.37 1011.12 1010.83 1010.51 1010.15 1009.76 1009.36 1008.97 1008.62 1008.32 1008.09 1007.92 1007.80 1007.72 1007.67 1007.64 1007.61 1007.60 1007.62 1007.65 1007.73 1007.84 1007.97 1008.12 1008.26 1008.37 1008.45 1008.48 1008.46 1008.43 1008.39 1008.40
1013.97 1013.81 1013.61 1013.37 1013.10 1012.80 1012.50 1012.21 1011.94 1011.67 1011.42 1011.15 1010.87 1010.54 1010.18 1009.78 1009.35 1008.92 1008.50 1008.12 1007.79 1007.52 1007.31 1007.15 1007.03 1006.95 1006.89 1006.86 1006.86 1006.90 1006.98 1007.12 1007.31 1007.52 1007.75 1007.97 1008.15 1008.27 1008.34 1008.35 1008.33 1008.31 1008.32
1013.78 1013.60 1013.41 1013.18 1012.92 1012.65 1012.38 1012.11 1011.84 1011.58 1011.30 1011.01 1010.69 1010.33 1009.92 1009.48 1009.01 1008.55 1008.10 1007.69 1007.33 1007.03 1006.78 1006.57 1006.41 1006.27 1006.17 1006.11 1006.09 1006.14 1006.25 1006.44 1006.68 1006.98 1007.29 1007.59 1007.85 1008.05 1008.18 1008.24 1008.25 1008.25 1008.27
1013.61 1013.44 1013.25 1013.04 1012.81 1012.56 1012.31 1012.06 1011.80 1011.54 1011.25 1010.93 1010.56 1010.16 1009.70 1009.22 1008.72 1008.23 1007.77 1007.34 1006.96 1006.63 1006.34 1006.09 1005.87 1005.67 1005.51 1005.39 1005.34 1005.35 1005.47 1005.67 1005.96 1006.32 1006.71 1007.10 1007.45 1007.74 1007.94 1008.07 1008.13 1008.16 1008.20
1013.49 1013.32 1013.14 1012.93 1012.72 1012.50 1012.27 1012.03 1011.78 1011.50 1011.19 1010.84 1010.43 1009.98 1009.48 1008.96 1008.44 1007.93 1007.45 1007.02 1006.63 1006.28 1005.96 1005.67 1005.39 1005.13 1004.90 1004.71 1004.59 1004.56 1004.64 1004.84 1005.16 1005.56 1006.01 1006.49 1006.93 1007.31 1007.60 1007.79 1007.92 1007.99 1008.05
1013.41 1013.23 1013.04 1012.84 1012.64 1012.42 1012.20 1011.97 1011.71 1011.42 1011.08 1010.68 1010.23 1009.73 1009.19 1008.64 1008.09 1007.57 1007.09 1006.65 1006.26 1005.91 1005.57 1005.25 1004.93 1004.61 1004.30 1004.04 1003.85 1003.77 1003.81 1003.99 1004.30 1004.73 1005.24 1005.77 1006.30 1006.76 1007.13 1007.41 1007.59 1007.71 1007.79
1013.33 1013.14 1012.93 1012.72 1012.50 1012.28 1012.06 1011.81 1011.54 1011.23 1010.85 1010.42 1009.92 1009.38 1008.80 1008.22 1007.65 1007.11 1006.63 1006.20 1005.81 1005.46 1005.12 1004.78 1004.42 1004.06 1003.71 1003.40 1003.15 1003.01 1003.01 1003.16 1003.47 1003.91 1004.44 1005.03 1005.61 1006.14 1006.58 1006.92 1007.16 1007.31 1007.42
1013.22 1013.00 1012.76 1012.52 1012.28 1012.04 1011.80 1011.54 1011.25 1010.91 1010.50 1010.03 1009.50 1008.91 1008.30 1007.68 1007.08 1006.53 1006.05 1005.62 1005.24 1004.89 1004.56 1004.22 1003.86 1003.49 1003.12 1002.78 1002.50 1002.34 1002.31 1002.44 1002.74 1003.18 1003.72 1004.33 1004.94 1005.51 1006.00 1006.38 1006.65 1006.83 1006.96
1013.03 1012.77 1012.50 1012.22 1011.96 1011.70 1011.43 1011.16 1010.85 1010.49 1010.06 1009.56 1008.98 1008.36 1007.71 1007.05 1006.43 1005.86 1005.36 1004.93 1004.55 1004.22 1003.90 1003.58 1003.25 1002.90 1002.55 1002.22 1001.96 1001.80 1001.77 1001.90 1002.18 1002.61 1003.15 1003.75 1004.37 1004.94 1005.44 1005.83 1006.12 1006.31 1006.45
1012.74 1012.45 1012.15 1011.85 1011.55 1011.27 1011.00 1010.71 1010.39 1010.01 1009.56 1009.04 1008.44 1007.78 1007.09 1006.41 1005.75 1005.15 1004.63 1004.18 1003.81 1003.49 1003.20 1002.92 1002.63 1002.34 1002.05 1001.77 1001.56 1001.43 1001.42 1001.56 1001.84 1002.25 1002.76 1003.33 1003.92 1004.46 1004.94 1005.31 1005.59 1005.78 1005.93
1012.38 1012.07 1011.74 1011.42 1011.11 1010.82 1010.54 1010.25 1009.92 1009.54 1009.08 1008.54 1007.92 1007.24 1006.51 1005.79 1005.09 1004.46 1003.91 1003.45 1003.08 1002.77 1002.52 1002.29 1002.08 1001.86 1001.65 1001.46 1001.32 1001.25 1001.28 1001.43 1001.71 1002.09 1002.55 1003.07 1003.59 1004.07 1004.49 1004.83 1005.08 1005.27 1005.41
1011.98 1011.66 1011.32 1011.00 1010.69 1010.40 1010.13 1009.84 1009.51 1009.13 1008.66 1008.11 1007.47 1006.76 1006.00 1005.24 1004.51 1003.84 1003.27 1002.80 1002.43 1002.14 1001.93 1001.77 1001.63 1001.51 1001.40 1001.31 1001.25 1001.24 1001.31 1001.47 1001.73 1002.06 1002.46 1002.89 1003.33 1003.73 1004.08 1004.36 1004.58 1004.75 1004.90
1011.59 1011.27 1010.95 1010.63 1010.34 1010.06 1009.79 1009.51 1009.19 1008.80 1008.32 1007.75 1007.09 1006.35 1005.57 1004.77 1004.01 1003.32 1002.73 1002.25 1001.89 1001.64 1001.48 1001.39 1001.33 1001.30 1001.29 1001.28 1001.30 1001.35 1001.45 1001.60 1001.82 1002.09 1002.40 1002.73 1003.06 1003.37 1003.64 1003.86 1004.05 1004.21 1004.37
1011.25 1010.95 1010.64 1010.35 1010.08 1009.81 1009.55 1009.27 1008.94 1008.54 1008.04 1007.45 1006.76 1005.99 1005.18 1004.36 1003.59 1002.88 1002.29 1001.82 1001.49 1001.28 1001.17 1001.14 1001.17 1001.22 1001.28 1001.35 1001.41 1001.49 1001.58 1001.71 1001.86 1002.05 1002.26 1002.49 1002.72 1002.94 1003.13 1003.31 1003.47 1003.63 1003.82
1010.98 1010.71 1010.43 1010.17 1009.91 1009.66 1009.40 1009.11 1008.76 1008.32 1007.79 1007.15 1006.43 1005.63 1004.79 1003.96 1003.18 1002.48 1001.91 1001.47 1001.18 1001.02 1000.97 1001.00 1001.09 1001.21 1001.32 1001.42 1001.51 1001.58 1001.64 1001.70 1001.78 1001.88 1001.99 1002.11 1002.25 1002.39 1002.53 1002.67 1002.83 1003.01 1003.23
1010.79 1010.54 1010.30 1010.06 1009.82 1009.57 1009.30 1008.98 1008.58 1008.09 1007.51 1006.82 1006.04 1005.21 1004.35 1003.51 1002.74 1002.07 1001.53 1001.15 1000.91 1000.81 1000.82 1000.91 1001.05 1001.20 1001.34 1001.44 1001.51 1001.54 1001.54 1001.53 1001.52 1001.52 1001.53 1001.57 1001.64 1001.73 1001.84 1001.98 1002.15 1002.37 1002.64
Thickness
5740 5741 5740 5739 5737 5734 5731 5728 5726 5726 5726 5726 5725 5723 5722 5722 5721 5719 5716 5714 5713 5713 5712 5712 5711 5712 5713 5713 5715 5714 5713 5713 5716 5714 5716 5722 5728 5730 5731 5733 5735 5738 5737
5733 5731 5731 5731 5728 5724 5721 5720 5718 5716 5715 5713 5712 5711 5710 5712 5711 5709 5707 5706 5706 5707 5710 5708 5708 5708 5706 5706 5706 5705 5706 5709 5710 5708 5708 5711 5719 5723 5728 5730 5730 5732 5735
5724 5723 5722 5722 5720 5717 5714 5712 5708 5706 5704 5702 5704 5703 5702 5702 5701 5698 5698 5697 5697 5699 5700 5702 5703 5703 5702 5701 5699 5699 5697 5699 5704 5706 5704 5703 5708 5720 5724 5724 5726 5728 5731
5719 5717 5717 5715 5713 5711 5709 5705 5701 5697 5693 5691 5690 5687 5685 5685 5685 5685 5686 5686 5687 5688 5690 5691 5693 5694 5696 5695 5695 5696 5694 5692 5695 5700 5701 5703 5707 5705 5713 5718 5723 5724 5725
5715 5712 5712 5709 5708 5705 5702 5699 5694 5688 5684 5681 5677 5675 5676 5676 5678 5676 5675 5674 5677 5677 5677 5678 5680 5682 5686 5687 5688 5689 5689 5690 5690 5694 5697 5697 5697 5699 5701 5708 5714 5718 5723
5710 5707 5706 5703 5700 5698 5694 5691 5685 5680 5676 5672 5668 5664 5662 5661 5661 5661 5662 5664 5666 5666 5666 5665 5666 5668 5672 5675 5678 5680 5683 5684 5686 5688 5693 5694 5695 5697 5699 5701 5704 5710 5719
5703 5699 5696 5693 5690 5687 5684 5679 5674 5669 5665 5662 5659 5655 5652 5649 5648 5649 5652 5651 5653 5655 5654 5653 5652 5654 5657 5660 5664 5668 5673 5677 5678 5680 5684 5689 5693 5698 5699 5699 5702 5704 5712
5697 5692 5687 5684 5681 5677 5673 5668 5662 5657 5653 5649 5647 5644 5642 5642 5643 5643 5641 5641 5641 5642 5642 5640 5640 5642 5644 5647 5651 5655 5660 5665 5669 5673 5675 5679 5685 5691 5693 5695 5696 5697 5704
5686 5682 5679 5675 5671 5666 5661 5655 5649 5644 5640 5637 5635 5635 5635 5633 5632 5631 5630 5632 5632 5632 5631 5629 5629 5630 5631 5634 5636 5641 5645 5650 5656 5661 5664 5668 5676 5681 5687 5691 5693 5693 5696
5680 5676 5670 5665 5660 5656 5650 5645 5638 5633 5630 5628 5627 5628 5625 5624 5623 5622 5621 5619 5618 5618 5617 5618 5618 5618 5619 5621 5623 5629 5632 5636 5641 5646 5650 5655 5662 5670 5677 5682 5686 5690 5693
5673 5669 5664 5659 5653 5648 5642 5636 5630 5626 5623 5621 5619 5616 5615 5613 5611 5609 5608 5607 5606 5604 5603 5604 5605 5606 5607 5608 5610 5616 5619 5622 5627 5631 5635 5640 5645 5652 5662 5670 5676 5682 5686
5667 5663 5659 5653 5646 5640 5634 5627 5622 5618 5616 5613 5610 5607 5604 5601 5598 5596 5593 5590 5588 5587 5587 5587 5589 5591 5594 5596 5598 5601 5606 5610 5614 5618 5620 5625 5630 5636 5645 5655 5664 5671 5677
5661 5656 5650 5643 5635 5629 5623 5617 5613 5610 5606 5603 5599 5595 5591 5588 5583 5579 5574 5570 5568 5567 5567 5568 5570 5573 5577 5581 5585 5589 5594 5597 5602 5607 5610 5613 5616 5622 5630 5638 5648 5658 5667
5653 5647 5640 5633 5626 5619 5614 5609 5605 5600 5596 5592 5587 5583 5578 5572 5567 5561 5555 5550 5546 5544 5545 5547 5550 5555 5559 5564 5570 5575 5581 5585 5589 5594 5599 5603 5606 5612 5618 5625 5633 5643 5653
5646 5640 5633 5627 5620 5614 5607 5602 5597 5591 5586 5581 5576 5571 5565 5558 5551 5544 5536 5529 5524 5521 5520 5523 5528 5535 5541 5548 5555 5561 5567 5571 5576 5581 5586 5593 5597 5602 5607 5616 5622 5629 5638
5641 5635 5629 5622 5615 5607 5601 5594 5588 5582 5576 5570 5564 5558 5551 5544 5536 5527 5519 5512 5505 5500 5498 5500 5506 5514 5524 5533 5538 5545 5553 5561 5566 5570 5574 5581 5585 5590 5596 5605 5612 5617 5624
5635 5629 5623 5616 5609 5601 5593 5586 5579 5573 5566 5560 5553 5547 5539 5531 5522 5513 5504 5496 5489 5484 5481 5483 5488 5496 5506 5514 5521 5528 5539 5549 5554 5559 5563 5570 5578 5581 5587 5593 5600 5607 5614
5630 5624 5618 5612 5604 5596 5587 5578 5572 5565 5559 5553 5546 5537 5529 5520 5511 5501 5492 5484 5476 5471 5469 5470 5474 5482 5493 5501 5507 5516 5526 5537 5546 5551 5554 5559 5567 5571 5577 5585 5592 5599 5607
5625 5618 5611 5605 5598 5589 5580 5572 5565 5560 5553 5547 5539 5530 5521 5512 5503 5494 5484 5476 5469 5465 5462 5462 5466 5473 5483 5491 5499 5506 5520 5529 5538 5544 5549 5553 5557 5560 5566 5577 5586 5593 5602
5621 5614 5607 5600 5593 5584 5574 5566 5561 5554 5548 5541 5533 5525 5516 5507 5499 5491 5482 5474 5466 5461 5459 5459 5462 5468 5477 5485 5493 5499 5515 5524 5532 5537 5543 5544 5549 5550 5555 5566 5575 5585 5596
5618 5611 5603 5596 5588 5579 5569 5561 5556 5550 5544 5536 5528 5521 5513 5506 5499 5491 5482 5474 5467 5462 5460 5459 5462 5467 5474 5481 5488 5495 5510 5521 5527 5535 5539 5543 5540 5542 5546 5554 5566 5577 5588
5616 5608 5600 5593 5584 5575 5566 5558 5553 5547 5540 5532 5526 5520 5514 5506 5500 5492 5484 5477 5470 5464 5463 5462 5465 5468 5474 5480 5486 5492 5502 5511 5523 5532 5539 5541 5536 5537 5539 5546 5556 5564 5574
5613 5605 5598 5589 5581 5572 5562 5554 5549 5543 5536 5530 5525 5520 5514 5507 5500 5494 5487 5480 5473 5468 5466 5466 5468 5472 5476 5479 5483 5488 5497 5504 5515 5527 5529 5531 5530 5532 5537 5541 5548 5555 5569
5609 5602 5594 5585 5578 5568 5559 5551 5545 5540 5534 5528 5524 5520 5515 5510 5504 5497 5490 5483 5477 5472 5470 5469 5471 5474 5478 5482 5487 5493 5497 5501 5510 5520 5525 5524 5527 5531 5539 5544 5548 5557 5568
5605 5597 5588 5580 5572 5565 5557 5550 5544 5538 5533 5528 5524 5520 5516 5512 5507 5502 5495 5488 5481 5473 5469 5470 5471 5474 5479 5482 5486 5495 5502 5510 5517 5523 5528 5533 5536 5539 5544 5550 5556 5561 5567
5601 5593 5584 5576 5568 5562 5555 5549 5543 5536 5531 5527 5525 5522 5519 5515 5511 5507 5502 5494 5483 5475 5469 5466 5465 5472 5473 5475 5481 5487 5493 5500 5508 5516 5528 5533 5538 5544 5549 5553 5557 5561 5565